Tegucigalpa, Honduras

7:49 AM CST en Junio 23, 2018 (GMT -0600)
Toncontin International

Tiempo Historia de MHTG - Marzo, 2018

Change the Weather History Date:

Martes, Marzo 13, 2018

  Actual Average Record
Temperature  
Temperatura media 70 ° F -  
Temperatura máxima 85 ° F 84 ° F 91 ° F (2014)
Temperatura mínima 56 ° F 61 ° F 53 ° F (2001)
Cooling Degree Days 6    
Growing Degree Days 20 (Base 50)    
Moisture  
Punto de rocío 54 ° F    
Average Humidity 52    
Maximum Humidity 82    
Minimum Humidity 20    
Precipitación  
Precipitación 0.00 pul 0.03 pul - ()
Presión al nivel del mar  
Presión al nivel del mar 30.03 pul    
Viento  
Velocidad del viento 8 mph ()    
Velocidad máxima del viento 16 mph    
Max Gust Speed 23 mph    
Visibilidad 6.2 Millas    
Eventos      
Averages and records for this station are not official NWS values.
T = Trace of Precipitation, MM = Missing Value Source: Averaged Metar Reports

Daily Weather History Graph

Daily Weather History Graph

Search for Another Location

Airport or City:

Astronomía

Mar. 13, 2018 Salida Puesta
Hora real 5:57 AM CST 5:59 PM CST
Crepúsculo civil 5:36 AM CST 6:20 PM CST
Crepúsculo náutico 5:11 AM CST 6:45 PM CST
Crepúsculo astronómico 4:46 AM CST 7:09 PM CST
Luna 3:13 AM CST (3/13) 2:58 PM CST (3/13)
Horas de luz 12h 43m
Horas de luz
12h 01m
Creciente menguante, 14% of the Moon is Illuminated
Mar 13
Creciente menguante
Mar 17
Nueva
Mar 24
Cuarto creciente
Mar 31
Luna llena
Abr 8
Cuarto menguante

Hourly Weather History & Observations

Hora (CST) Temp. Índice de calor Punto de rocío Humedad Presión Visibilidad Wind Dir Velocidad del viento Velocidad de ráfagas Precip Eventos Condiciones
12:00 AM 70 ° F - 54 ° F 46% 29.97 pul 6 mi Norte 11.5 mph - -   Bruma
12:00 AM 69.8 ° F - 53.6 ° F 56% 30.06 pul 6.2 mi Norte 11.5 mph - N/A   Parcialmente nublado
1:00 AM 68.0 ° F - 55.4 ° F 64% 30.06 pul 6.2 mi Norte 6.9 mph - N/A   Parcialmente nublado
2:00 AM 66.2 ° F - 55.4 ° F 68% 30.06 pul 6.2 mi Norte 9.2 mph - N/A   Parcialmente nublado
3:00 AM 65 ° F - 56 ° F 65% 29.99 pul 6 mi Norte 6.9 mph - -   Bruma
3:00 AM 66.2 ° F - 55.4 ° F 68% 30.06 pul 6.2 mi Norte 6.9 mph - N/A   Parcialmente nublado
4:00 AM 60.8 ° F - 51.8 ° F 72% 30.06 pul 6.2 mi Sin viento Sin viento - N/A   Parcialmente nublado
5:00 AM 59.0 ° F - 51.8 ° F 77% 30.06 pul 6.2 mi Sin viento Sin viento - N/A   Parcialmente nublado
6:00 AM 58 ° F - 51 ° F 71% 30.06 pul 6 mi Oeste 6.9 mph - -   Bruma
6:00 AM 57.2 ° F - 51.8 ° F 82% 30.09 pul 6.2 mi Oeste 6.9 mph - N/A   Muy nublado
7:00 AM 60.8 ° F - 55.4 ° F 82% 30.12 pul 6.2 mi Sin viento Sin viento - N/A   Parcialmente nublado
8:00 AM 69.8 ° F - 59.0 ° F 68% 30.12 pul 6.2 mi Norte 9.2 mph - N/A   Parcialmente nublado
9:00 AM 74 ° F - 58 ° F 48% 29.99 pul 6 mi Norte 13.8 mph - -   Humo
9:00 AM 75.2 ° F - 59.0 ° F 57% 30.12 pul 6.2 mi Norte 13.8 mph - N/A   Parcialmente nublado
10:00 AM 78.8 ° F - 51.8 ° F 39% 30.12 pul 6.2 mi Norte 11.5 mph 23.0 mph N/A   Parcialmente nublado
11:00 AM 80.6 ° F - 51.8 ° F 37% 30.09 pul 6.2 mi Norte 13.8 mph - N/A   Despejado
12:00 PM 82 ° F - 48 ° F 20% 29.89 pul 6 mi Norte 13.8 mph - -   Humo
12:00 PM 82.4 ° F - 48.2 ° F 30% 30.06 pul 6.2 mi Norte 13.8 mph - N/A   Despejado
1:00 PM 82.4 ° F - 50.0 ° F 32% 30.04 pul 6.2 mi Norte 11.5 mph 23.0 mph N/A   Parcialmente nublado
2:00 PM 86.0 ° F 84.2 ° F 53.6 ° F 33% 30.01 pul 6.2 mi Norte 11.5 mph - N/A   Parcialmente nublado
3:00 PM 84 ° F - 50 ° F 21% 29.80 pul 6 mi Norte 9.2 mph - -   Humo
3:00 PM 84.2 ° F - 50.0 ° F 30% 30.01 pul 6.2 mi Norte 9.2 mph - N/A   Parcialmente nublado
4:00 PM 86.0 ° F - 50.0 ° F 29% 29.98 pul 6.2 mi NE 4.6 mph - N/A   Parcialmente nublado
5:00 PM 84.2 ° F - 50.0 ° F 30% 29.98 pul 6.2 mi Este 13.8 mph - N/A   Parcialmente nublado
6:00 PM 80 ° F - 53 ° F 29% 29.84 pul 6 mi Este 13.8 mph - -   Humo
6:00 PM 80.6 ° F 80.3 ° F 53.6 ° F 39% 30.01 pul 6.2 mi Este 13.8 mph - N/A   Parcialmente nublado
7:00 PM 77.0 ° F - 53.6 ° F 44% 30.04 pul 6.2 mi NE 6.9 mph - N/A   Parcialmente nublado
8:00 PM 75.2 ° F - 55.4 ° F 50% 30.06 pul 6.2 mi NNE 4.6 mph - N/A   Parcialmente nublado
9:00 PM 74 ° F - 60 ° F 53% 29.97 pul 9 mi Norte 16.1 mph - -   Humo
9:00 PM 73.4 ° F - 60.8 ° F 65% 30.09 pul 6.2 mi Norte 16.1 mph - N/A   Parcialmente nublado
10:00 PM 71.6 ° F - 62.6 ° F 73% 30.12 pul 6.2 mi NNE 9.2 mph - N/A   Nubes dispersas
11:00 PM 69.8 ° F - 62.6 ° F 78% 30.12 pul 6.2 mi Norte 11.5 mph - N/A   Nubes dispersas